Index of /20260502/WXO-DD/model_rdps/10km/12/062
Name Last modified Size Description
Parent Directory -
20260502T12Z_MSC_RDPS_AbsoluteVorticity_IsbL-0250_RLatLon0.09_PT062H.grib2 2026-05-02 14:58 622K
20260502T12Z_MSC_RDPS_AbsoluteVorticity_IsbL-0500_RLatLon0.09_PT062H.grib2 2026-05-02 14:58 561K
20260502T12Z_MSC_RDPS_AbsoluteVorticity_IsbL-0700_RLatLon0.09_PT062H.grib2 2026-05-02 14:58 616K
20260502T12Z_MSC_RDPS_AbsoluteVorticity_IsbL-0850_RLatLon0.09_PT062H.grib2 2026-05-02 14:58 786K
20260502T12Z_MSC_RDPS_AirTemp_AGL-120m_RLatLon0.09_PT062H.grib2 2026-05-02 14:58 385K
20260502T12Z_MSC_RDPS_AirTemp_AGL-2m_RLatLon0.09_PT062H.grib2 2026-05-02 14:58 622K
20260502T12Z_MSC_RDPS_AirTemp_AGL-40m_RLatLon0.09_PT062H.grib2 2026-05-02 14:58 396K
20260502T12Z_MSC_RDPS_AirTemp_AGL-80m_RLatLon0.09_PT062H.grib2 2026-05-02 14:58 388K
20260502T12Z_MSC_RDPS_AirTemp_IsbL-0001_RLatLon0.09_PT062H.grib2 2026-05-02 14:58 306K
20260502T12Z_MSC_RDPS_AirTemp_IsbL-0005_RLatLon0.09_PT062H.grib2 2026-05-02 14:58 295K
20260502T12Z_MSC_RDPS_AirTemp_IsbL-0010_RLatLon0.09_PT062H.grib2 2026-05-02 14:58 302K
20260502T12Z_MSC_RDPS_AirTemp_IsbL-0020_RLatLon0.09_PT062H.grib2 2026-05-02 14:58 320K
20260502T12Z_MSC_RDPS_AirTemp_IsbL-0030_RLatLon0.09_PT062H.grib2 2026-05-02 14:58 338K
20260502T12Z_MSC_RDPS_AirTemp_IsbL-0050_RLatLon0.09_PT062H.grib2 2026-05-02 14:58 319K
20260502T12Z_MSC_RDPS_AirTemp_IsbL-0100_RLatLon0.09_PT062H.grib2 2026-05-02 14:58 433K
20260502T12Z_MSC_RDPS_AirTemp_IsbL-0150_RLatLon0.09_PT062H.grib2 2026-05-02 14:58 421K
20260502T12Z_MSC_RDPS_AirTemp_IsbL-0175_RLatLon0.09_PT062H.grib2 2026-05-02 14:58 413K
20260502T12Z_MSC_RDPS_AirTemp_IsbL-0200_RLatLon0.09_PT062H.grib2 2026-05-02 14:58 417K
20260502T12Z_MSC_RDPS_AirTemp_IsbL-0225_RLatLon0.09_PT062H.grib2 2026-05-02 14:58 421K
20260502T12Z_MSC_RDPS_AirTemp_IsbL-0250_RLatLon0.09_PT062H.grib2 2026-05-02 14:58 425K
20260502T12Z_MSC_RDPS_AirTemp_IsbL-0275_RLatLon0.09_PT062H.grib2 2026-05-02 14:58 404K
20260502T12Z_MSC_RDPS_AirTemp_IsbL-0300_RLatLon0.09_PT062H.grib2 2026-05-02 14:58 413K
20260502T12Z_MSC_RDPS_AirTemp_IsbL-0350_RLatLon0.09_PT062H.grib2 2026-05-02 14:58 429K
20260502T12Z_MSC_RDPS_AirTemp_IsbL-0400_RLatLon0.09_PT062H.grib2 2026-05-02 14:58 431K
20260502T12Z_MSC_RDPS_AirTemp_IsbL-0450_RLatLon0.09_PT062H.grib2 2026-05-02 14:58 438K
20260502T12Z_MSC_RDPS_AirTemp_IsbL-0500_RLatLon0.09_PT062H.grib2 2026-05-02 14:58 449K
20260502T12Z_MSC_RDPS_AirTemp_IsbL-0550_RLatLon0.09_PT062H.grib2 2026-05-02 14:58 467K
20260502T12Z_MSC_RDPS_AirTemp_IsbL-0600_RLatLon0.09_PT062H.grib2 2026-05-02 14:58 447K
20260502T12Z_MSC_RDPS_AirTemp_IsbL-0650_RLatLon0.09_PT062H.grib2 2026-05-02 14:58 463K
20260502T12Z_MSC_RDPS_AirTemp_IsbL-0700_RLatLon0.09_PT062H.grib2 2026-05-02 14:58 378K
20260502T12Z_MSC_RDPS_AirTemp_IsbL-0750_RLatLon0.09_PT062H.grib2 2026-05-02 14:58 407K
20260502T12Z_MSC_RDPS_AirTemp_IsbL-0800_RLatLon0.09_PT062H.grib2 2026-05-02 14:58 451K
20260502T12Z_MSC_RDPS_AirTemp_IsbL-0850_RLatLon0.09_PT062H.grib2 2026-05-02 14:58 503K
20260502T12Z_MSC_RDPS_AirTemp_IsbL-0875_RLatLon0.09_PT062H.grib2 2026-05-02 14:58 521K
20260502T12Z_MSC_RDPS_AirTemp_IsbL-0900_RLatLon0.09_PT062H.grib2 2026-05-02 14:58 526K
20260502T12Z_MSC_RDPS_AirTemp_IsbL-0925_RLatLon0.09_PT062H.grib2 2026-05-02 14:58 521K
20260502T12Z_MSC_RDPS_AirTemp_IsbL-0950_RLatLon0.09_PT062H.grib2 2026-05-02 14:58 517K
20260502T12Z_MSC_RDPS_AirTemp_IsbL-0970_RLatLon0.09_PT062H.grib2 2026-05-02 14:58 507K
20260502T12Z_MSC_RDPS_AirTemp_IsbL-0985_RLatLon0.09_PT062H.grib2 2026-05-02 14:58 494K
20260502T12Z_MSC_RDPS_AirTemp_IsbL-1000_RLatLon0.09_PT062H.grib2 2026-05-02 14:58 481K
20260502T12Z_MSC_RDPS_AirTemp_IsbL-1015_RLatLon0.09_PT062H.grib2 2026-05-02 14:58 485K
20260502T12Z_MSC_RDPS_Albedo_Sfc_RLatLon0.09_PT062H.grib2 2026-05-02 14:58 159K
20260502T12Z_MSC_RDPS_CAPE_Sfc_RLatLon0.09_PT062H.grib2 2026-05-02 14:58 1.7M
20260502T12Z_MSC_RDPS_CIN_Sfc_RLatLon0.09_PT062H.grib2 2026-05-02 14:58 1.2M
20260502T12Z_MSC_RDPS_CloudWater_EAtm_RLatLon0.09_PT062H.grib2 2026-05-02 14:58 223K
20260502T12Z_MSC_RDPS_ConvectivePrecip-Accum_Sfc_RLatLon0.09_PT062H.grib2 2026-05-02 14:58 1.2M
20260502T12Z_MSC_RDPS_DewPointDepression_AGL-2m_RLatLon0.09_PT062H.grib2 2026-05-02 14:58 404K
20260502T12Z_MSC_RDPS_DewPointDepression_IsbL-0001_RLatLon0.09_PT062H.grib2 2026-05-02 14:58 193
20260502T12Z_MSC_RDPS_DewPointDepression_IsbL-0005_RLatLon0.09_PT062H.grib2 2026-05-02 14:58 193
20260502T12Z_MSC_RDPS_DewPointDepression_IsbL-0010_RLatLon0.09_PT062H.grib2 2026-05-02 14:58 193
20260502T12Z_MSC_RDPS_DewPointDepression_IsbL-0020_RLatLon0.09_PT062H.grib2 2026-05-02 14:58 193
20260502T12Z_MSC_RDPS_DewPointDepression_IsbL-0030_RLatLon0.09_PT062H.grib2 2026-05-02 14:58 193
20260502T12Z_MSC_RDPS_DewPointDepression_IsbL-0050_RLatLon0.09_PT062H.grib2 2026-05-02 14:58 78K
20260502T12Z_MSC_RDPS_DewPointDepression_IsbL-0100_RLatLon0.09_PT062H.grib2 2026-05-02 14:58 119K
20260502T12Z_MSC_RDPS_DewPointDepression_IsbL-0150_RLatLon0.09_PT062H.grib2 2026-05-02 14:58 147K
20260502T12Z_MSC_RDPS_DewPointDepression_IsbL-0175_RLatLon0.09_PT062H.grib2 2026-05-02 14:58 184K
20260502T12Z_MSC_RDPS_DewPointDepression_IsbL-0200_RLatLon0.09_PT062H.grib2 2026-05-02 14:58 224K
20260502T12Z_MSC_RDPS_DewPointDepression_IsbL-0225_RLatLon0.09_PT062H.grib2 2026-05-02 14:58 262K
20260502T12Z_MSC_RDPS_DewPointDepression_IsbL-0250_RLatLon0.09_PT062H.grib2 2026-05-02 14:58 302K
20260502T12Z_MSC_RDPS_DewPointDepression_IsbL-0275_RLatLon0.09_PT062H.grib2 2026-05-02 14:58 309K
20260502T12Z_MSC_RDPS_DewPointDepression_IsbL-0300_RLatLon0.09_PT062H.grib2 2026-05-02 14:58 325K
20260502T12Z_MSC_RDPS_DewPointDepression_IsbL-0350_RLatLon0.09_PT062H.grib2 2026-05-02 14:58 328K
20260502T12Z_MSC_RDPS_DewPointDepression_IsbL-0400_RLatLon0.09_PT062H.grib2 2026-05-02 14:58 342K
20260502T12Z_MSC_RDPS_DewPointDepression_IsbL-0450_RLatLon0.09_PT062H.grib2 2026-05-02 14:58 347K
20260502T12Z_MSC_RDPS_DewPointDepression_IsbL-0500_RLatLon0.09_PT062H.grib2 2026-05-02 14:58 352K
20260502T12Z_MSC_RDPS_DewPointDepression_IsbL-0550_RLatLon0.09_PT062H.grib2 2026-05-02 14:58 360K
20260502T12Z_MSC_RDPS_DewPointDepression_IsbL-0600_RLatLon0.09_PT062H.grib2 2026-05-02 14:58 370K
20260502T12Z_MSC_RDPS_DewPointDepression_IsbL-0650_RLatLon0.09_PT062H.grib2 2026-05-02 14:58 382K
20260502T12Z_MSC_RDPS_DewPointDepression_IsbL-0700_RLatLon0.09_PT062H.grib2 2026-05-02 14:58 396K
20260502T12Z_MSC_RDPS_DewPointDepression_IsbL-0750_RLatLon0.09_PT062H.grib2 2026-05-02 14:58 411K
20260502T12Z_MSC_RDPS_DewPointDepression_IsbL-0800_RLatLon0.09_PT062H.grib2 2026-05-02 14:58 444K
20260502T12Z_MSC_RDPS_DewPointDepression_IsbL-0850_RLatLon0.09_PT062H.grib2 2026-05-02 14:58 475K
20260502T12Z_MSC_RDPS_DewPointDepression_IsbL-0875_RLatLon0.09_PT062H.grib2 2026-05-02 14:58 473K
20260502T12Z_MSC_RDPS_DewPointDepression_IsbL-0900_RLatLon0.09_PT062H.grib2 2026-05-02 14:58 461K
20260502T12Z_MSC_RDPS_DewPointDepression_IsbL-0925_RLatLon0.09_PT062H.grib2 2026-05-02 14:58 449K
20260502T12Z_MSC_RDPS_DewPointDepression_IsbL-0950_RLatLon0.09_PT062H.grib2 2026-05-02 14:58 441K
20260502T12Z_MSC_RDPS_DewPointDepression_IsbL-0970_RLatLon0.09_PT062H.grib2 2026-05-02 14:58 433K
20260502T12Z_MSC_RDPS_DewPointDepression_IsbL-0985_RLatLon0.09_PT062H.grib2 2026-05-02 14:58 427K
20260502T12Z_MSC_RDPS_DewPointDepression_IsbL-1000_RLatLon0.09_PT062H.grib2 2026-05-02 14:58 420K
20260502T12Z_MSC_RDPS_DewPointDepression_IsbL-1015_RLatLon0.09_PT062H.grib2 2026-05-02 14:58 412K
20260502T12Z_MSC_RDPS_DewPoint_AGL-2m_RLatLon0.09_PT062H.grib2 2026-05-02 14:58 302K
20260502T12Z_MSC_RDPS_DownwardLongwaveRadiationFlux-Accum_Sfc_RLatLon0.09_PT062H.grib2 2026-05-02 14:58 412K
20260502T12Z_MSC_RDPS_DownwardShortwaveRadiationFlux-Accum_NTAtm_RLatLon0.09_PT062H.grib2 2026-05-02 14:58 114K
20260502T12Z_MSC_RDPS_DownwardShortwaveRadiationFlux-Accum_Sfc_RLatLon0.09_PT062H.grib2 2026-05-02 14:58 618K
20260502T12Z_MSC_RDPS_FreezingRain-Accum1h_Sfc_RLatLon0.09_PT062H.grib2 2026-05-02 14:58 27K
20260502T12Z_MSC_RDPS_FreezingRain-Accum_Sfc_RLatLon0.09_PT062H.grib2 2026-05-02 14:58 182K
20260502T12Z_MSC_RDPS_GeopotentialHeight_IsbL-0001_RLatLon0.09_PT062H.grib2 2026-05-02 14:58 312K
20260502T12Z_MSC_RDPS_GeopotentialHeight_IsbL-0005_RLatLon0.09_PT062H.grib2 2026-05-02 14:58 337K
20260502T12Z_MSC_RDPS_GeopotentialHeight_IsbL-0010_RLatLon0.09_PT062H.grib2 2026-05-02 14:58 304K
20260502T12Z_MSC_RDPS_GeopotentialHeight_IsbL-0020_RLatLon0.09_PT062H.grib2 2026-05-02 14:58 401K
20260502T12Z_MSC_RDPS_GeopotentialHeight_IsbL-0030_RLatLon0.09_PT062H.grib2 2026-05-02 14:58 403K
20260502T12Z_MSC_RDPS_GeopotentialHeight_IsbL-0050_RLatLon0.09_PT062H.grib2 2026-05-02 14:58 309K
20260502T12Z_MSC_RDPS_GeopotentialHeight_IsbL-0100_RLatLon0.09_PT062H.grib2 2026-05-02 14:58 289K
20260502T12Z_MSC_RDPS_GeopotentialHeight_IsbL-0150_RLatLon0.09_PT062H.grib2 2026-05-02 14:58 231K
20260502T12Z_MSC_RDPS_GeopotentialHeight_IsbL-0175_RLatLon0.09_PT062H.grib2 2026-05-02 14:58 234K
20260502T12Z_MSC_RDPS_GeopotentialHeight_IsbL-0200_RLatLon0.09_PT062H.grib2 2026-05-02 14:58 236K
20260502T12Z_MSC_RDPS_GeopotentialHeight_IsbL-0225_RLatLon0.09_PT062H.grib2 2026-05-02 14:58 237K
20260502T12Z_MSC_RDPS_GeopotentialHeight_IsbL-0250_RLatLon0.09_PT062H.grib2 2026-05-02 14:58 238K
20260502T12Z_MSC_RDPS_GeopotentialHeight_IsbL-0275_RLatLon0.09_PT062H.grib2 2026-05-02 14:58 237K
20260502T12Z_MSC_RDPS_GeopotentialHeight_IsbL-0300_RLatLon0.09_PT062H.grib2 2026-05-02 14:58 236K
20260502T12Z_MSC_RDPS_GeopotentialHeight_IsbL-0350_RLatLon0.09_PT062H.grib2 2026-05-02 14:58 231K
20260502T12Z_MSC_RDPS_GeopotentialHeight_IsbL-0400_RLatLon0.09_PT062H.grib2 2026-05-02 14:58 228K
20260502T12Z_MSC_RDPS_GeopotentialHeight_IsbL-0450_RLatLon0.09_PT062H.grib2 2026-05-02 14:58 298K
20260502T12Z_MSC_RDPS_GeopotentialHeight_IsbL-0500_RLatLon0.09_PT062H.grib2 2026-05-02 14:58 294K
20260502T12Z_MSC_RDPS_GeopotentialHeight_IsbL-0550_RLatLon0.09_PT062H.grib2 2026-05-02 14:58 292K
20260502T12Z_MSC_RDPS_GeopotentialHeight_IsbL-0600_RLatLon0.09_PT062H.grib2 2026-05-02 14:58 260K
20260502T12Z_MSC_RDPS_GeopotentialHeight_IsbL-0650_RLatLon0.09_PT062H.grib2 2026-05-02 14:58 258K
20260502T12Z_MSC_RDPS_GeopotentialHeight_IsbL-0700_RLatLon0.09_PT062H.grib2 2026-05-02 14:58 257K
20260502T12Z_MSC_RDPS_GeopotentialHeight_IsbL-0750_RLatLon0.09_PT062H.grib2 2026-05-02 14:58 342K
20260502T12Z_MSC_RDPS_GeopotentialHeight_IsbL-0800_RLatLon0.09_PT062H.grib2 2026-05-02 14:58 349K
20260502T12Z_MSC_RDPS_GeopotentialHeight_IsbL-0850_RLatLon0.09_PT062H.grib2 2026-05-02 14:58 359K
20260502T12Z_MSC_RDPS_GeopotentialHeight_IsbL-0875_RLatLon0.09_PT062H.grib2 2026-05-02 14:58 274K
20260502T12Z_MSC_RDPS_GeopotentialHeight_IsbL-0900_RLatLon0.09_PT062H.grib2 2026-05-02 14:58 277K
20260502T12Z_MSC_RDPS_GeopotentialHeight_IsbL-0925_RLatLon0.09_PT062H.grib2 2026-05-02 14:58 280K
20260502T12Z_MSC_RDPS_GeopotentialHeight_IsbL-0950_RLatLon0.09_PT062H.grib2 2026-05-02 14:58 282K
20260502T12Z_MSC_RDPS_GeopotentialHeight_IsbL-0970_RLatLon0.09_PT062H.grib2 2026-05-02 14:58 286K
20260502T12Z_MSC_RDPS_GeopotentialHeight_IsbL-0985_RLatLon0.09_PT062H.grib2 2026-05-02 14:58 291K
20260502T12Z_MSC_RDPS_GeopotentialHeight_IsbL-1000_RLatLon0.09_PT062H.grib2 2026-05-02 14:58 299K
20260502T12Z_MSC_RDPS_GeopotentialHeight_IsbL-1015_RLatLon0.09_PT062H.grib2 2026-05-02 14:58 310K
20260502T12Z_MSC_RDPS_Humidex_Sfc_RLatLon0.09_PT062H.grib2 2026-05-02 14:58 2.2M
20260502T12Z_MSC_RDPS_IcePellets-Accum1h_Sfc_RLatLon0.09_PT062H.grib2 2026-05-02 14:58 8.4K
20260502T12Z_MSC_RDPS_IcePellets-Accum_Sfc_RLatLon0.09_PT062H.grib2 2026-05-02 14:58 30K
20260502T12Z_MSC_RDPS_KIndex_Sfc_RLatLon0.09_PT062H.grib2 2026-05-02 14:58 2.5M
20260502T12Z_MSC_RDPS_LatentHeatNetFlux_Sfc_RLatLon0.09_PT062H.grib2 2026-05-02 14:58 439K
20260502T12Z_MSC_RDPS_LiftedIndex-MU-VT_IsbL-0500_RLatLon0.09_PT062H.grib2 2026-05-02 14:58 2.4M
20260502T12Z_MSC_RDPS_NetLongwaveRadiationFlux-Accum_Sfc_RLatLon0.09_PT062H.grib2 2026-05-02 14:58 594K
20260502T12Z_MSC_RDPS_NetShortwaveRadiationFlux-Accum_Sfc_RLatLon0.09_PT062H.grib2 2026-05-02 14:58 619K
20260502T12Z_MSC_RDPS_PlanetaryBoundaryLayerHeight_Sfc_RLatLon0.09_PT062H.grib2 2026-05-02 14:58 1.2M
20260502T12Z_MSC_RDPS_Precip-Accum1h_Sfc_RLatLon0.09_PT062H.grib2 2026-05-02 14:58 1.3M
20260502T12Z_MSC_RDPS_Precip-Accum_Sfc_RLatLon0.09_PT062H.grib2 2026-05-02 14:58 2.2M
20260502T12Z_MSC_RDPS_PrecipRate_Sfc_RLatLon0.09_PT062H.grib2 2026-05-02 14:58 183K
20260502T12Z_MSC_RDPS_PrecipType-Instant_Sfc_RLatLon0.09_PT062H.grib2 2026-05-02 14:58 557K
20260502T12Z_MSC_RDPS_Pressure-Trend3h_Sfc_RLatLon0.09_PT062H.grib2 2026-05-02 14:58 1.2M
20260502T12Z_MSC_RDPS_Pressure_MSL_RLatLon0.09_PT062H.grib2 2026-05-02 14:58 326K
20260502T12Z_MSC_RDPS_Pressure_PVU-1.5_RLatLon0.09_PT062H.grib2 2026-05-02 14:58 2.5M
20260502T12Z_MSC_RDPS_Pressure_PVU-1_RLatLon0.09_PT062H.grib2 2026-05-02 14:58 2.4M
20260502T12Z_MSC_RDPS_Pressure_PVU-2_RLatLon0.09_PT062H.grib2 2026-05-02 14:58 2.4M
20260502T12Z_MSC_RDPS_Pressure_Sfc_RLatLon0.09_PT062H.grib2 2026-05-02 14:58 497K
20260502T12Z_MSC_RDPS_RadiativeTemp_Sfc_RLatLon0.09_PT062H.grib2 2026-05-02 14:58 305K
20260502T12Z_MSC_RDPS_Rain-Accum1h_Sfc_RLatLon0.09_PT062H.grib2 2026-05-02 14:58 632K
20260502T12Z_MSC_RDPS_Rain-Accum_Sfc_RLatLon0.09_PT062H.grib2 2026-05-02 14:58 1.8M
20260502T12Z_MSC_RDPS_RelativeHumidity_AGL-2m_RLatLon0.09_PT062H.grib2 2026-05-02 14:58 1.0M
20260502T12Z_MSC_RDPS_RelativeHumidity_IsbL-0010_RLatLon0.09_PT062H.grib2 2026-05-02 14:58 610K
20260502T12Z_MSC_RDPS_RelativeHumidity_IsbL-0020_RLatLon0.09_PT062H.grib2 2026-05-02 14:58 736K
20260502T12Z_MSC_RDPS_RelativeHumidity_IsbL-0030_RLatLon0.09_PT062H.grib2 2026-05-02 14:58 602K
20260502T12Z_MSC_RDPS_RelativeHumidity_IsbL-0050_RLatLon0.09_PT062H.grib2 2026-05-02 14:58 360K
20260502T12Z_MSC_RDPS_RelativeHumidity_IsbL-0100_RLatLon0.09_PT062H.grib2 2026-05-02 14:58 287K
20260502T12Z_MSC_RDPS_RelativeHumidity_IsbL-0150_RLatLon0.09_PT062H.grib2 2026-05-02 14:58 418K
20260502T12Z_MSC_RDPS_RelativeHumidity_IsbL-0175_RLatLon0.09_PT062H.grib2 2026-05-02 14:58 485K
20260502T12Z_MSC_RDPS_RelativeHumidity_IsbL-0200_RLatLon0.09_PT062H.grib2 2026-05-02 14:58 563K
20260502T12Z_MSC_RDPS_RelativeHumidity_IsbL-0225_RLatLon0.09_PT062H.grib2 2026-05-02 14:58 633K
20260502T12Z_MSC_RDPS_RelativeHumidity_IsbL-0250_RLatLon0.09_PT062H.grib2 2026-05-02 14:58 694K
20260502T12Z_MSC_RDPS_RelativeHumidity_IsbL-0275_RLatLon0.09_PT062H.grib2 2026-05-02 14:58 713K
20260502T12Z_MSC_RDPS_RelativeHumidity_IsbL-0300_RLatLon0.09_PT062H.grib2 2026-05-02 14:58 749K
20260502T12Z_MSC_RDPS_RelativeHumidity_IsbL-0350_RLatLon0.09_PT062H.grib2 2026-05-02 14:58 770K
20260502T12Z_MSC_RDPS_RelativeHumidity_IsbL-0400_RLatLon0.09_PT062H.grib2 2026-05-02 14:58 788K
20260502T12Z_MSC_RDPS_RelativeHumidity_IsbL-0450_RLatLon0.09_PT062H.grib2 2026-05-02 14:58 795K
20260502T12Z_MSC_RDPS_RelativeHumidity_IsbL-0500_RLatLon0.09_PT062H.grib2 2026-05-02 14:58 797K
20260502T12Z_MSC_RDPS_RelativeHumidity_IsbL-0550_RLatLon0.09_PT062H.grib2 2026-05-02 14:58 811K
20260502T12Z_MSC_RDPS_RelativeHumidity_IsbL-0600_RLatLon0.09_PT062H.grib2 2026-05-02 14:58 831K
20260502T12Z_MSC_RDPS_RelativeHumidity_IsbL-0650_RLatLon0.09_PT062H.grib2 2026-05-02 14:58 860K
20260502T12Z_MSC_RDPS_RelativeHumidity_IsbL-0700_RLatLon0.09_PT062H.grib2 2026-05-02 14:58 879K
20260502T12Z_MSC_RDPS_RelativeHumidity_IsbL-0750_RLatLon0.09_PT062H.grib2 2026-05-02 14:58 917K
20260502T12Z_MSC_RDPS_RelativeHumidity_IsbL-0800_RLatLon0.09_PT062H.grib2 2026-05-02 14:58 1.0M
20260502T12Z_MSC_RDPS_RelativeHumidity_IsbL-0850_RLatLon0.09_PT062H.grib2 2026-05-02 14:58 1.0M
20260502T12Z_MSC_RDPS_RelativeHumidity_IsbL-0875_RLatLon0.09_PT062H.grib2 2026-05-02 14:58 1.1M
20260502T12Z_MSC_RDPS_RelativeHumidity_IsbL-0900_RLatLon0.09_PT062H.grib2 2026-05-02 14:58 1.1M
20260502T12Z_MSC_RDPS_RelativeHumidity_IsbL-0925_RLatLon0.09_PT062H.grib2 2026-05-02 14:58 1.1M
20260502T12Z_MSC_RDPS_RelativeHumidity_IsbL-0950_RLatLon0.09_PT062H.grib2 2026-05-02 14:58 1.1M
20260502T12Z_MSC_RDPS_RelativeHumidity_IsbL-0970_RLatLon0.09_PT062H.grib2 2026-05-02 14:58 1.0M
20260502T12Z_MSC_RDPS_RelativeHumidity_IsbL-0985_RLatLon0.09_PT062H.grib2 2026-05-02 14:58 1.0M
20260502T12Z_MSC_RDPS_RelativeHumidity_IsbL-1000_RLatLon0.09_PT062H.grib2 2026-05-02 14:58 1.0M
20260502T12Z_MSC_RDPS_RelativeHumidity_IsbL-1015_RLatLon0.09_PT062H.grib2 2026-05-02 14:58 1.0M
20260502T12Z_MSC_RDPS_Runoff-Accum_Sfc_RLatLon0.09_PT062H.grib2 2026-05-02 14:58 62K
20260502T12Z_MSC_RDPS_SWEATIndex_Sfc_RLatLon0.09_PT062H.grib2 2026-05-02 14:58 2.4M
20260502T12Z_MSC_RDPS_SeeingIndex_EAtm_RLatLon0.09_PT062H.grib2 2026-05-02 14:58 1.0M
20260502T12Z_MSC_RDPS_SensibleHeatNetFlux_Sfc_RLatLon0.09_PT062H.grib2 2026-05-02 14:58 302K
20260502T12Z_MSC_RDPS_ShowalterIndex_IsbL-0500_RLatLon0.09_PT062H.grib2 2026-05-02 14:58 2.6M
20260502T12Z_MSC_RDPS_SkyTransparencyIndex_EAtm_RLatLon0.09_PT062H.grib2 2026-05-02 14:58 718K
20260502T12Z_MSC_RDPS_Snow-Accum1h_Sfc_RLatLon0.09_PT062H.grib2 2026-05-02 14:58 378K
20260502T12Z_MSC_RDPS_Snow-Accum_Sfc_RLatLon0.09_PT062H.grib2 2026-05-02 14:58 766K
20260502T12Z_MSC_RDPS_SnowDensity_Sfc_RLatLon0.09_PT062H.grib2 2026-05-02 14:58 174K
20260502T12Z_MSC_RDPS_SnowDepth_Sfc_RLatLon0.09_PT062H.grib2 2026-05-02 14:58 654K
20260502T12Z_MSC_RDPS_SoilTemp_DBS-0to10cm_RLatLon0.09_PT062H.grib2 2026-05-02 14:58 247K
20260502T12Z_MSC_RDPS_SoilTemp_Sfc_RLatLon0.09_PT062H.grib2 2026-05-02 14:58 274K
20260502T12Z_MSC_RDPS_SoilVolumetricIceContent_Sfc_RLatLon0.09_PT062H.grib2 2026-05-02 14:58 154K
20260502T12Z_MSC_RDPS_SoilVolumetricWaterContent_DBS-0to10cm_RLatLon0.09_PT062H.grib2 2026-05-02 14:58 276K
20260502T12Z_MSC_RDPS_SoilVolumetricWaterContent_DBS-0to1cm_RLatLon0.09_PT062H.grib2 2026-05-02 14:58 342K
20260502T12Z_MSC_RDPS_SpecificHumidity_AGL-120m_RLatLon0.09_PT062H.grib2 2026-05-02 14:58 483K
20260502T12Z_MSC_RDPS_SpecificHumidity_AGL-2m_RLatLon0.09_PT062H.grib2 2026-05-02 14:58 655K
20260502T12Z_MSC_RDPS_SpecificHumidity_AGL-40m_RLatLon0.09_PT062H.grib2 2026-05-02 14:58 488K
20260502T12Z_MSC_RDPS_SpecificHumidity_AGL-80m_RLatLon0.09_PT062H.grib2 2026-05-02 14:58 484K
20260502T12Z_MSC_RDPS_SpecificHumidity_IsbL-0001_RLatLon0.09_PT062H.grib2 2026-05-02 14:58 400K
20260502T12Z_MSC_RDPS_SpecificHumidity_IsbL-0005_RLatLon0.09_PT062H.grib2 2026-05-02 14:58 362K
20260502T12Z_MSC_RDPS_SpecificHumidity_IsbL-0010_RLatLon0.09_PT062H.grib2 2026-05-02 14:58 396K
20260502T12Z_MSC_RDPS_SpecificHumidity_IsbL-0020_RLatLon0.09_PT062H.grib2 2026-05-02 14:58 374K
20260502T12Z_MSC_RDPS_SpecificHumidity_IsbL-0030_RLatLon0.09_PT062H.grib2 2026-05-02 14:58 370K
20260502T12Z_MSC_RDPS_SpecificHumidity_IsbL-0050_RLatLon0.09_PT062H.grib2 2026-05-02 14:58 479K
20260502T12Z_MSC_RDPS_SpecificHumidity_IsbL-0100_RLatLon0.09_PT062H.grib2 2026-05-02 14:58 427K
20260502T12Z_MSC_RDPS_SpecificHumidity_IsbL-0150_RLatLon0.09_PT062H.grib2 2026-05-02 14:58 456K
20260502T12Z_MSC_RDPS_SpecificHumidity_IsbL-0175_RLatLon0.09_PT062H.grib2 2026-05-02 14:58 447K
20260502T12Z_MSC_RDPS_SpecificHumidity_IsbL-0200_RLatLon0.09_PT062H.grib2 2026-05-02 14:58 468K
20260502T12Z_MSC_RDPS_SpecificHumidity_IsbL-0225_RLatLon0.09_PT062H.grib2 2026-05-02 14:58 471K
20260502T12Z_MSC_RDPS_SpecificHumidity_IsbL-0250_RLatLon0.09_PT062H.grib2 2026-05-02 14:58 530K
20260502T12Z_MSC_RDPS_SpecificHumidity_IsbL-0275_RLatLon0.09_PT062H.grib2 2026-05-02 14:58 487K
20260502T12Z_MSC_RDPS_SpecificHumidity_IsbL-0300_RLatLon0.09_PT062H.grib2 2026-05-02 14:58 456K
20260502T12Z_MSC_RDPS_SpecificHumidity_IsbL-0350_RLatLon0.09_PT062H.grib2 2026-05-02 14:58 572K
20260502T12Z_MSC_RDPS_SpecificHumidity_IsbL-0400_RLatLon0.09_PT062H.grib2 2026-05-02 14:58 529K
20260502T12Z_MSC_RDPS_SpecificHumidity_IsbL-0450_RLatLon0.09_PT062H.grib2 2026-05-02 14:58 579K
20260502T12Z_MSC_RDPS_SpecificHumidity_IsbL-0500_RLatLon0.09_PT062H.grib2 2026-05-02 14:58 511K
20260502T12Z_MSC_RDPS_SpecificHumidity_IsbL-0550_RLatLon0.09_PT062H.grib2 2026-05-02 14:58 580K
20260502T12Z_MSC_RDPS_SpecificHumidity_IsbL-0600_RLatLon0.09_PT062H.grib2 2026-05-02 14:58 631K
20260502T12Z_MSC_RDPS_SpecificHumidity_IsbL-0650_RLatLon0.09_PT062H.grib2 2026-05-02 14:58 554K
20260502T12Z_MSC_RDPS_SpecificHumidity_IsbL-0700_RLatLon0.09_PT062H.grib2 2026-05-02 14:58 601K
20260502T12Z_MSC_RDPS_SpecificHumidity_IsbL-0750_RLatLon0.09_PT062H.grib2 2026-05-02 14:58 653K
20260502T12Z_MSC_RDPS_SpecificHumidity_IsbL-0800_RLatLon0.09_PT062H.grib2 2026-05-02 14:58 732K
20260502T12Z_MSC_RDPS_SpecificHumidity_IsbL-0850_RLatLon0.09_PT062H.grib2 2026-05-02 14:58 809K
20260502T12Z_MSC_RDPS_SpecificHumidity_IsbL-0875_RLatLon0.09_PT062H.grib2 2026-05-02 14:58 696K
20260502T12Z_MSC_RDPS_SpecificHumidity_IsbL-0900_RLatLon0.09_PT062H.grib2 2026-05-02 14:58 705K
20260502T12Z_MSC_RDPS_SpecificHumidity_IsbL-0925_RLatLon0.09_PT062H.grib2 2026-05-02 14:58 706K
20260502T12Z_MSC_RDPS_SpecificHumidity_IsbL-0950_RLatLon0.09_PT062H.grib2 2026-05-02 14:58 704K
20260502T12Z_MSC_RDPS_SpecificHumidity_IsbL-0970_RLatLon0.09_PT062H.grib2 2026-05-02 14:58 694K
20260502T12Z_MSC_RDPS_SpecificHumidity_IsbL-0985_RLatLon0.09_PT062H.grib2 2026-05-02 14:58 685K
20260502T12Z_MSC_RDPS_SpecificHumidity_IsbL-1000_RLatLon0.09_PT062H.grib2 2026-05-02 14:58 677K
20260502T12Z_MSC_RDPS_SpecificHumidity_IsbL-1015_RLatLon0.09_PT062H.grib2 2026-05-02 14:58 669K
20260502T12Z_MSC_RDPS_SpecificHumidity_Sfc_RLatLon0.09_PT062H.grib2 2026-05-02 14:58 322K
20260502T12Z_MSC_RDPS_StormRelativeHelicity_EtaL-10000_RLatLon0.09_PT062H.grib2 2026-05-02 14:58 1.1M
20260502T12Z_MSC_RDPS_StormSeverityIndex_EtaL-10000_RLatLon0.09_PT062H.grib2 2026-05-02 14:58 1.2M
20260502T12Z_MSC_RDPS_Thickness_IsbL-0850to0700_RLatLon0.09_PT062H.grib2 2026-05-02 14:58 177K
20260502T12Z_MSC_RDPS_Thickness_IsbL-1000to0500_RLatLon0.09_PT062H.grib2 2026-05-02 14:58 200K
20260502T12Z_MSC_RDPS_Thickness_IsbL-1000to0850_RLatLon0.09_PT062H.grib2 2026-05-02 14:58 184K
20260502T12Z_MSC_RDPS_TotalCloudCover_Sfc_RLatLon0.09_PT062H.grib2 2026-05-02 14:58 665K
20260502T12Z_MSC_RDPS_TotalTotalsIndex_Sfc_RLatLon0.09_PT062H.grib2 2026-05-02 14:58 2.4M
20260502T12Z_MSC_RDPS_UVIndex-ClearSky_Sfc_RLatLon0.09_PT062H.grib2 2026-05-02 14:58 121K
20260502T12Z_MSC_RDPS_UVIndex_Sfc_RLatLon0.09_PT062H.grib2 2026-05-02 14:58 256K
20260502T12Z_MSC_RDPS_UpwardLongwaveRadiationFlux_NTAtm_RLatLon0.09_PT062H.grib2 2026-05-02 14:58 495K
20260502T12Z_MSC_RDPS_UpwardShortwaveRadiationFlux_NTAtm_RLatLon0.09_PT062H.grib2 2026-05-02 14:58 241K
20260502T12Z_MSC_RDPS_VerticalVelocity_IsbL-0250_RLatLon0.09_PT062H.grib2 2026-05-02 14:58 562K
20260502T12Z_MSC_RDPS_VerticalVelocity_IsbL-0500_RLatLon0.09_PT062H.grib2 2026-05-02 14:58 549K
20260502T12Z_MSC_RDPS_VerticalVelocity_IsbL-0700_RLatLon0.09_PT062H.grib2 2026-05-02 14:58 602K
20260502T12Z_MSC_RDPS_VerticalVelocity_IsbL-0850_RLatLon0.09_PT062H.grib2 2026-05-02 14:58 701K
20260502T12Z_MSC_RDPS_VerticalWindShear_EtaL-6500_RLatLon0.09_PT062H.grib2 2026-05-02 14:58 1.2M
20260502T12Z_MSC_RDPS_WindChill_Sfc_RLatLon0.09_PT062H.grib2 2026-05-02 14:58 1.1M
20260502T12Z_MSC_RDPS_WindDir_AGL-10m_RLatLon0.09_PT062H.grib2 2026-05-02 14:58 940K
20260502T12Z_MSC_RDPS_WindDir_AGL-120m_RLatLon0.09_PT062H.grib2 2026-05-02 14:58 584K
20260502T12Z_MSC_RDPS_WindDir_AGL-40m_RLatLon0.09_PT062H.grib2 2026-05-02 14:58 610K
20260502T12Z_MSC_RDPS_WindDir_AGL-80m_RLatLon0.09_PT062H.grib2 2026-05-02 14:58 594K
20260502T12Z_MSC_RDPS_WindDir_IsbL-0001_RLatLon0.09_PT062H.grib2 2026-05-02 14:58 298K
20260502T12Z_MSC_RDPS_WindDir_IsbL-0005_RLatLon0.09_PT062H.grib2 2026-05-02 14:58 376K
20260502T12Z_MSC_RDPS_WindDir_IsbL-0010_RLatLon0.09_PT062H.grib2 2026-05-02 14:58 388K
20260502T12Z_MSC_RDPS_WindDir_IsbL-0020_RLatLon0.09_PT062H.grib2 2026-05-02 14:58 416K
20260502T12Z_MSC_RDPS_WindDir_IsbL-0030_RLatLon0.09_PT062H.grib2 2026-05-02 14:58 433K
20260502T12Z_MSC_RDPS_WindDir_IsbL-0050_RLatLon0.09_PT062H.grib2 2026-05-02 14:58 422K
20260502T12Z_MSC_RDPS_WindDir_IsbL-0100_RLatLon0.09_PT062H.grib2 2026-05-02 14:58 410K
20260502T12Z_MSC_RDPS_WindDir_IsbL-0150_RLatLon0.09_PT062H.grib2 2026-05-02 14:58 404K
20260502T12Z_MSC_RDPS_WindDir_IsbL-0175_RLatLon0.09_PT062H.grib2 2026-05-02 14:58 433K
20260502T12Z_MSC_RDPS_WindDir_IsbL-0200_RLatLon0.09_PT062H.grib2 2026-05-02 14:58 449K
20260502T12Z_MSC_RDPS_WindDir_IsbL-0225_RLatLon0.09_PT062H.grib2 2026-05-02 14:58 456K
20260502T12Z_MSC_RDPS_WindDir_IsbL-0250_RLatLon0.09_PT062H.grib2 2026-05-02 14:58 455K
20260502T12Z_MSC_RDPS_WindDir_IsbL-0275_RLatLon0.09_PT062H.grib2 2026-05-02 14:58 471K
20260502T12Z_MSC_RDPS_WindDir_IsbL-0300_RLatLon0.09_PT062H.grib2 2026-05-02 14:58 471K
20260502T12Z_MSC_RDPS_WindDir_IsbL-0350_RLatLon0.09_PT062H.grib2 2026-05-02 14:58 498K
20260502T12Z_MSC_RDPS_WindDir_IsbL-0400_RLatLon0.09_PT062H.grib2 2026-05-02 14:58 514K
20260502T12Z_MSC_RDPS_WindDir_IsbL-0450_RLatLon0.09_PT062H.grib2 2026-05-02 14:58 530K
20260502T12Z_MSC_RDPS_WindDir_IsbL-0500_RLatLon0.09_PT062H.grib2 2026-05-02 14:58 538K
20260502T12Z_MSC_RDPS_WindDir_IsbL-0550_RLatLon0.09_PT062H.grib2 2026-05-02 14:58 552K
20260502T12Z_MSC_RDPS_WindDir_IsbL-0600_RLatLon0.09_PT062H.grib2 2026-05-02 14:58 574K
20260502T12Z_MSC_RDPS_WindDir_IsbL-0650_RLatLon0.09_PT062H.grib2 2026-05-02 14:58 612K
20260502T12Z_MSC_RDPS_WindDir_IsbL-0700_RLatLon0.09_PT062H.grib2 2026-05-02 14:58 656K
20260502T12Z_MSC_RDPS_WindDir_IsbL-0750_RLatLon0.09_PT062H.grib2 2026-05-02 14:58 703K
20260502T12Z_MSC_RDPS_WindDir_IsbL-0800_RLatLon0.09_PT062H.grib2 2026-05-02 14:58 764K
20260502T12Z_MSC_RDPS_WindDir_IsbL-0850_RLatLon0.09_PT062H.grib2 2026-05-02 14:58 853K
20260502T12Z_MSC_RDPS_WindDir_IsbL-0875_RLatLon0.09_PT062H.grib2 2026-05-02 14:58 883K
20260502T12Z_MSC_RDPS_WindDir_IsbL-0900_RLatLon0.09_PT062H.grib2 2026-05-02 14:58 895K
20260502T12Z_MSC_RDPS_WindDir_IsbL-0925_RLatLon0.09_PT062H.grib2 2026-05-02 14:58 897K
20260502T12Z_MSC_RDPS_WindDir_IsbL-0950_RLatLon0.09_PT062H.grib2 2026-05-02 14:58 889K
20260502T12Z_MSC_RDPS_WindDir_IsbL-0970_RLatLon0.09_PT062H.grib2 2026-05-02 14:58 895K
20260502T12Z_MSC_RDPS_WindDir_IsbL-0985_RLatLon0.09_PT062H.grib2 2026-05-02 14:58 902K
20260502T12Z_MSC_RDPS_WindDir_IsbL-1000_RLatLon0.09_PT062H.grib2 2026-05-02 14:58 916K
20260502T12Z_MSC_RDPS_WindDir_IsbL-1015_RLatLon0.09_PT062H.grib2 2026-05-02 14:58 930K
20260502T12Z_MSC_RDPS_WindGust-Max_AGL-10m_RLatLon0.09_PT062H.grib2 2026-05-02 14:58 963K
20260502T12Z_MSC_RDPS_WindGust-Min_AGL-10m_RLatLon0.09_PT062H.grib2 2026-05-02 14:58 1.0M
20260502T12Z_MSC_RDPS_WindGust_AGL-10m_RLatLon0.09_PT062H.grib2 2026-05-02 14:58 1.0M
20260502T12Z_MSC_RDPS_WindSpeed_AGL-10m_RLatLon0.09_PT062H.grib2 2026-05-02 14:58 840K
20260502T12Z_MSC_RDPS_WindSpeed_AGL-120m_RLatLon0.09_PT062H.grib2 2026-05-02 14:58 535K
20260502T12Z_MSC_RDPS_WindSpeed_AGL-40m_RLatLon0.09_PT062H.grib2 2026-05-02 14:58 671K
20260502T12Z_MSC_RDPS_WindSpeed_AGL-80m_RLatLon0.09_PT062H.grib2 2026-05-02 14:58 537K
20260502T12Z_MSC_RDPS_WindSpeed_IsbL-0001_RLatLon0.09_PT062H.grib2 2026-05-02 14:58 338K
20260502T12Z_MSC_RDPS_WindSpeed_IsbL-0005_RLatLon0.09_PT062H.grib2 2026-05-02 14:58 354K
20260502T12Z_MSC_RDPS_WindSpeed_IsbL-0010_RLatLon0.09_PT062H.grib2 2026-05-02 14:58 367K
20260502T12Z_MSC_RDPS_WindSpeed_IsbL-0020_RLatLon0.09_PT062H.grib2 2026-05-02 14:58 420K
20260502T12Z_MSC_RDPS_WindSpeed_IsbL-0030_RLatLon0.09_PT062H.grib2 2026-05-02 14:58 324K
20260502T12Z_MSC_RDPS_WindSpeed_IsbL-0050_RLatLon0.09_PT062H.grib2 2026-05-02 14:58 356K
20260502T12Z_MSC_RDPS_WindSpeed_IsbL-0100_RLatLon0.09_PT062H.grib2 2026-05-02 14:58 485K
20260502T12Z_MSC_RDPS_WindSpeed_IsbL-0150_RLatLon0.09_PT062H.grib2 2026-05-02 14:58 387K
20260502T12Z_MSC_RDPS_WindSpeed_IsbL-0175_RLatLon0.09_PT062H.grib2 2026-05-02 14:58 414K
20260502T12Z_MSC_RDPS_WindSpeed_IsbL-0200_RLatLon0.09_PT062H.grib2 2026-05-02 14:58 447K
20260502T12Z_MSC_RDPS_WindSpeed_IsbL-0225_RLatLon0.09_PT062H.grib2 2026-05-02 14:58 455K
20260502T12Z_MSC_RDPS_WindSpeed_IsbL-0250_RLatLon0.09_PT062H.grib2 2026-05-02 14:58 458K
20260502T12Z_MSC_RDPS_WindSpeed_IsbL-0275_RLatLon0.09_PT062H.grib2 2026-05-02 14:58 472K
20260502T12Z_MSC_RDPS_WindSpeed_IsbL-0300_RLatLon0.09_PT062H.grib2 2026-05-02 14:58 471K
20260502T12Z_MSC_RDPS_WindSpeed_IsbL-0350_RLatLon0.09_PT062H.grib2 2026-05-02 14:58 482K
20260502T12Z_MSC_RDPS_WindSpeed_IsbL-0400_RLatLon0.09_PT062H.grib2 2026-05-02 14:58 483K
20260502T12Z_MSC_RDPS_WindSpeed_IsbL-0450_RLatLon0.09_PT062H.grib2 2026-05-02 14:58 466K
20260502T12Z_MSC_RDPS_WindSpeed_IsbL-0500_RLatLon0.09_PT062H.grib2 2026-05-02 14:58 467K
20260502T12Z_MSC_RDPS_WindSpeed_IsbL-0550_RLatLon0.09_PT062H.grib2 2026-05-02 14:58 585K
20260502T12Z_MSC_RDPS_WindSpeed_IsbL-0600_RLatLon0.09_PT062H.grib2 2026-05-02 14:58 596K
20260502T12Z_MSC_RDPS_WindSpeed_IsbL-0650_RLatLon0.09_PT062H.grib2 2026-05-02 14:58 614K
20260502T12Z_MSC_RDPS_WindSpeed_IsbL-0700_RLatLon0.09_PT062H.grib2 2026-05-02 14:58 635K
20260502T12Z_MSC_RDPS_WindSpeed_IsbL-0750_RLatLon0.09_PT062H.grib2 2026-05-02 14:58 661K
20260502T12Z_MSC_RDPS_WindSpeed_IsbL-0800_RLatLon0.09_PT062H.grib2 2026-05-02 14:58 709K
20260502T12Z_MSC_RDPS_WindSpeed_IsbL-0850_RLatLon0.09_PT062H.grib2 2026-05-02 14:58 774K
20260502T12Z_MSC_RDPS_WindSpeed_IsbL-0875_RLatLon0.09_PT062H.grib2 2026-05-02 14:58 800K
20260502T12Z_MSC_RDPS_WindSpeed_IsbL-0900_RLatLon0.09_PT062H.grib2 2026-05-02 14:58 815K
20260502T12Z_MSC_RDPS_WindSpeed_IsbL-0925_RLatLon0.09_PT062H.grib2 2026-05-02 14:58 872K
20260502T12Z_MSC_RDPS_WindSpeed_IsbL-0950_RLatLon0.09_PT062H.grib2 2026-05-02 14:58 872K
20260502T12Z_MSC_RDPS_WindSpeed_IsbL-0970_RLatLon0.09_PT062H.grib2 2026-05-02 14:58 870K
20260502T12Z_MSC_RDPS_WindSpeed_IsbL-0985_RLatLon0.09_PT062H.grib2 2026-05-02 14:58 859K
20260502T12Z_MSC_RDPS_WindSpeed_IsbL-1000_RLatLon0.09_PT062H.grib2 2026-05-02 14:58 851K
20260502T12Z_MSC_RDPS_WindSpeed_IsbL-1015_RLatLon0.09_PT062H.grib2 2026-05-02 14:58 841K
20260502T12Z_MSC_RDPS_WindU_AGL-10m_RLatLon0.09_PT062H.grib2 2026-05-02 14:58 429K
20260502T12Z_MSC_RDPS_WindU_AGL-120m_RLatLon0.09_PT062H.grib2 2026-05-02 14:58 415K
20260502T12Z_MSC_RDPS_WindU_AGL-40m_RLatLon0.09_PT062H.grib2 2026-05-02 14:58 534K
20260502T12Z_MSC_RDPS_WindU_AGL-80m_RLatLon0.09_PT062H.grib2 2026-05-02 14:58 532K
20260502T12Z_MSC_RDPS_WindU_IsbL-0001_RLatLon0.09_PT062H.grib2 2026-05-02 14:58 248K
20260502T12Z_MSC_RDPS_WindU_IsbL-0005_RLatLon0.09_PT062H.grib2 2026-05-02 14:58 289K
20260502T12Z_MSC_RDPS_WindU_IsbL-0010_RLatLon0.09_PT062H.grib2 2026-05-02 14:58 299K
20260502T12Z_MSC_RDPS_WindU_IsbL-0020_RLatLon0.09_PT062H.grib2 2026-05-02 14:58 315K
20260502T12Z_MSC_RDPS_WindU_IsbL-0030_RLatLon0.09_PT062H.grib2 2026-05-02 14:58 354K
20260502T12Z_MSC_RDPS_WindU_IsbL-0050_RLatLon0.09_PT062H.grib2 2026-05-02 14:58 384K
20260502T12Z_MSC_RDPS_WindU_IsbL-0100_RLatLon0.09_PT062H.grib2 2026-05-02 14:58 342K
20260502T12Z_MSC_RDPS_WindU_IsbL-0150_RLatLon0.09_PT062H.grib2 2026-05-02 14:58 403K
20260502T12Z_MSC_RDPS_WindU_IsbL-0175_RLatLon0.09_PT062H.grib2 2026-05-02 14:58 428K
20260502T12Z_MSC_RDPS_WindU_IsbL-0200_RLatLon0.09_PT062H.grib2 2026-05-02 14:58 342K
20260502T12Z_MSC_RDPS_WindU_IsbL-0225_RLatLon0.09_PT062H.grib2 2026-05-02 14:58 347K
20260502T12Z_MSC_RDPS_WindU_IsbL-0250_RLatLon0.09_PT062H.grib2 2026-05-02 14:58 348K
20260502T12Z_MSC_RDPS_WindU_IsbL-0275_RLatLon0.09_PT062H.grib2 2026-05-02 14:58 360K
20260502T12Z_MSC_RDPS_WindU_IsbL-0300_RLatLon0.09_PT062H.grib2 2026-05-02 14:58 357K
20260502T12Z_MSC_RDPS_WindU_IsbL-0350_RLatLon0.09_PT062H.grib2 2026-05-02 14:58 367K
20260502T12Z_MSC_RDPS_WindU_IsbL-0400_RLatLon0.09_PT062H.grib2 2026-05-02 14:58 368K
20260502T12Z_MSC_RDPS_WindU_IsbL-0450_RLatLon0.09_PT062H.grib2 2026-05-02 14:58 471K
20260502T12Z_MSC_RDPS_WindU_IsbL-0500_RLatLon0.09_PT062H.grib2 2026-05-02 14:58 473K
20260502T12Z_MSC_RDPS_WindU_IsbL-0550_RLatLon0.09_PT062H.grib2 2026-05-02 14:58 474K
20260502T12Z_MSC_RDPS_WindU_IsbL-0600_RLatLon0.09_PT062H.grib2 2026-05-02 14:58 484K
20260502T12Z_MSC_RDPS_WindU_IsbL-0650_RLatLon0.09_PT062H.grib2 2026-05-02 14:58 501K
20260502T12Z_MSC_RDPS_WindU_IsbL-0700_RLatLon0.09_PT062H.grib2 2026-05-02 14:58 520K
20260502T12Z_MSC_RDPS_WindU_IsbL-0750_RLatLon0.09_PT062H.grib2 2026-05-02 14:58 542K
20260502T12Z_MSC_RDPS_WindU_IsbL-0800_RLatLon0.09_PT062H.grib2 2026-05-02 14:58 582K
20260502T12Z_MSC_RDPS_WindU_IsbL-0850_RLatLon0.09_PT062H.grib2 2026-05-02 14:58 637K
20260502T12Z_MSC_RDPS_WindU_IsbL-0875_RLatLon0.09_PT062H.grib2 2026-05-02 14:58 656K
20260502T12Z_MSC_RDPS_WindU_IsbL-0900_RLatLon0.09_PT062H.grib2 2026-05-02 14:58 666K
20260502T12Z_MSC_RDPS_WindU_IsbL-0925_RLatLon0.09_PT062H.grib2 2026-05-02 14:58 665K
20260502T12Z_MSC_RDPS_WindU_IsbL-0950_RLatLon0.09_PT062H.grib2 2026-05-02 14:58 660K
20260502T12Z_MSC_RDPS_WindU_IsbL-0970_RLatLon0.09_PT062H.grib2 2026-05-02 14:58 654K
20260502T12Z_MSC_RDPS_WindU_IsbL-0985_RLatLon0.09_PT062H.grib2 2026-05-02 14:58 648K
20260502T12Z_MSC_RDPS_WindU_IsbL-1000_RLatLon0.09_PT062H.grib2 2026-05-02 14:58 782K
20260502T12Z_MSC_RDPS_WindU_IsbL-1015_RLatLon0.09_PT062H.grib2 2026-05-02 14:58 775K
20260502T12Z_MSC_RDPS_WindV_AGL-10m_RLatLon0.09_PT062H.grib2 2026-05-02 14:58 432K
20260502T12Z_MSC_RDPS_WindV_AGL-120m_RLatLon0.09_PT062H.grib2 2026-05-02 14:58 533K
20260502T12Z_MSC_RDPS_WindV_AGL-40m_RLatLon0.09_PT062H.grib2 2026-05-02 14:58 537K
20260502T12Z_MSC_RDPS_WindV_AGL-80m_RLatLon0.09_PT062H.grib2 2026-05-02 14:58 534K
20260502T12Z_MSC_RDPS_WindV_IsbL-0001_RLatLon0.09_PT062H.grib2 2026-05-02 14:58 251K
20260502T12Z_MSC_RDPS_WindV_IsbL-0005_RLatLon0.09_PT062H.grib2 2026-05-02 14:58 292K
20260502T12Z_MSC_RDPS_WindV_IsbL-0010_RLatLon0.09_PT062H.grib2 2026-05-02 14:58 392K
20260502T12Z_MSC_RDPS_WindV_IsbL-0020_RLatLon0.09_PT062H.grib2 2026-05-02 14:58 317K
20260502T12Z_MSC_RDPS_WindV_IsbL-0030_RLatLon0.09_PT062H.grib2 2026-05-02 14:58 356K
20260502T12Z_MSC_RDPS_WindV_IsbL-0050_RLatLon0.09_PT062H.grib2 2026-05-02 14:58 350K
20260502T12Z_MSC_RDPS_WindV_IsbL-0100_RLatLon0.09_PT062H.grib2 2026-05-02 14:58 340K
20260502T12Z_MSC_RDPS_WindV_IsbL-0150_RLatLon0.09_PT062H.grib2 2026-05-02 14:58 400K
20260502T12Z_MSC_RDPS_WindV_IsbL-0175_RLatLon0.09_PT062H.grib2 2026-05-02 14:58 328K
20260502T12Z_MSC_RDPS_WindV_IsbL-0200_RLatLon0.09_PT062H.grib2 2026-05-02 14:58 340K
20260502T12Z_MSC_RDPS_WindV_IsbL-0225_RLatLon0.09_PT062H.grib2 2026-05-02 14:58 370K
20260502T12Z_MSC_RDPS_WindV_IsbL-0250_RLatLon0.09_PT062H.grib2 2026-05-02 14:58 372K
20260502T12Z_MSC_RDPS_WindV_IsbL-0275_RLatLon0.09_PT062H.grib2 2026-05-02 14:58 384K
20260502T12Z_MSC_RDPS_WindV_IsbL-0300_RLatLon0.09_PT062H.grib2 2026-05-02 14:58 381K
20260502T12Z_MSC_RDPS_WindV_IsbL-0350_RLatLon0.09_PT062H.grib2 2026-05-02 14:58 389K
20260502T12Z_MSC_RDPS_WindV_IsbL-0400_RLatLon0.09_PT062H.grib2 2026-05-02 14:58 366K
20260502T12Z_MSC_RDPS_WindV_IsbL-0450_RLatLon0.09_PT062H.grib2 2026-05-02 14:58 366K
20260502T12Z_MSC_RDPS_WindV_IsbL-0500_RLatLon0.09_PT062H.grib2 2026-05-02 14:58 366K
20260502T12Z_MSC_RDPS_WindV_IsbL-0550_RLatLon0.09_PT062H.grib2 2026-05-02 14:58 472K
20260502T12Z_MSC_RDPS_WindV_IsbL-0600_RLatLon0.09_PT062H.grib2 2026-05-02 14:58 482K
20260502T12Z_MSC_RDPS_WindV_IsbL-0650_RLatLon0.09_PT062H.grib2 2026-05-02 14:58 498K
20260502T12Z_MSC_RDPS_WindV_IsbL-0700_RLatLon0.09_PT062H.grib2 2026-05-02 14:58 516K
20260502T12Z_MSC_RDPS_WindV_IsbL-0750_RLatLon0.09_PT062H.grib2 2026-05-02 14:58 537K
20260502T12Z_MSC_RDPS_WindV_IsbL-0800_RLatLon0.09_PT062H.grib2 2026-05-02 14:58 576K
20260502T12Z_MSC_RDPS_WindV_IsbL-0850_RLatLon0.09_PT062H.grib2 2026-05-02 14:58 623K
20260502T12Z_MSC_RDPS_WindV_IsbL-0875_RLatLon0.09_PT062H.grib2 2026-05-02 14:58 645K
20260502T12Z_MSC_RDPS_WindV_IsbL-0900_RLatLon0.09_PT062H.grib2 2026-05-02 14:58 658K
20260502T12Z_MSC_RDPS_WindV_IsbL-0925_RLatLon0.09_PT062H.grib2 2026-05-02 14:58 665K
20260502T12Z_MSC_RDPS_WindV_IsbL-0950_RLatLon0.09_PT062H.grib2 2026-05-02 14:58 662K
20260502T12Z_MSC_RDPS_WindV_IsbL-0970_RLatLon0.09_PT062H.grib2 2026-05-02 14:58 659K
20260502T12Z_MSC_RDPS_WindV_IsbL-0985_RLatLon0.09_PT062H.grib2 2026-05-02 14:58 793K
20260502T12Z_MSC_RDPS_WindV_IsbL-1000_RLatLon0.09_PT062H.grib2 2026-05-02 14:58 786K
20260502T12Z_MSC_RDPS_WindV_IsbL-1015_RLatLon0.09_PT062H.grib2 2026-05-02 14:58 779K